Dewpoint
38 40 40 40 40 40 39 39 41 41 42 42 42 43 44 44 44 43 40 42 39 34 34 34 34 33 33 34 31 32 38 40 40 34 36 35 36 36 36 37 38 38 38 37 35 33 30 36 32 30 32 32 33 33
38 38 39 39 39 38 38 39 41 42 42 42 43 43 43 43 44 44 39 41 43 38 36 39 38 37 36 38 37 37 37 39 40 39 39 40 37 39 37 35 41 37 37 36 37 35 37 37 33 32 33 31 33 33
37 38 40 39 38 38 39 40 41 42 42 42 42 42 43 43 43 43 40 41 42 37 36 37 36 37 40 40 42 36 37 41 44 44 42 41 37 38 36 36 39 39 39 36 36 37 36 36 35 34 34 32 33 34
35 37 38 38 37 38 40 41 41 41 41 41 42 42 42 42 42 43 41 41 41 37 29 31 39 42 44 44 45 47 46 48 43 47 43 42 38 38 33 36 38 39 38 37 35 37 37 36 35 34 33 33 34 35
36 35 36 36 37 39 40 41 41 41 41 41 41 42 42 41 42 42 43 42 43 37 30 32 36 35 35 44 46 46 48 46 46 44 43 41 42 38 39 38 34 39 37 35 33 37 35 35 37 35 34 33 33 32
37 37 37 37 38 39 40 40 40 40 41 41 41 40 41 43 42 40 35 41 43 43 34 28 37 38 41 46 47 48 48 47 45 44 44 45 47 40 34 32 34 38 39 36 33 39 37 37 37 35 34 34 33 32
36 37 37 38 38 39 39 40 40 40 40 41 41 41 42 42 41 36 34 42 45 44 34 30 32 38 41 46 46 44 46 44 43 43 43 44 45 42 39 35 36 37 38 37 39 38 36 37 35 35 34 33 32 34
36 37 37 38 38 38 39 39 38 39 39 40 41 42 42 41 41 38 40 42 42 37 35 29 31 35 42 40 39 45 42 42 41 40 43 42 44 43 39 40 40 37 39 39 39 36 36 36 35 33 32 31 33 35
35 35 37 37 38 38 38 39 38 39 39 39 41 41 39 38 35 35 41 43 44 36 31 31 30 31 41 40 41 41 40 35 41 38 40 41 39 37 39 40 41 39 38 39 38 36 35 34 31 30 29 30 32 34
35 35 36 37 38 38 37 38 38 38 39 39 38 36 32 35 40 41 39 37 37 35 32 29 36 31 39 36 36 35 37 32 32 35 41 37 36 39 40 41 42 41 38 39 36 34 34 32 30 29 29 30 32 32
34 35 35 36 36 37 37 37 37 37 37 37 33 32 36 40 38 35 31 29 30 28 32 33 35 32 39 34 33 37 33 33 31 34 35 34 34 37 39 39 42 42 43 43 41 37 34 32 30 30 30 31 31 30
33 34 34 35 36 36 36 36 37 36 37 34 34 38 37 34 31 27 26 29 28 27 33 34 36 38 38 39 35 35 32 33 30 36 32 30 30 36 38 38 40 40 41 39 39 36 33 31 31 30 31 30 30 31
34 34 34 35 36 36 36 36 37 37 38 38 33 32 30 28 23 22 22 26 27 31 34 37 35 37 38 38 34 33 30 29 35 32 31 30 30 32 36 37 36 35 35 33 34 34 31 31 32 31 31 31 32 33
35 35 35 35 36 34 33 35 37 37 37 31 27 23 25 23 24 25 26 30 31 33 36 38 34 35 36 33 33 29 33 33 29 28 28 29 29 30 35 37 34 32 32 32 33 33 32 32 31 31 31 33 33 31
36 35 36 35 35 37 37 35 37 38 34 29 29 21 23 25 27 31 33 33 32 33 37 35 33 32 32 31 32 31 29 27 28 26 26 27 29 31 36 36 32 30 32 32 32 32 31 30 29 30 31 30 29 29
33 35 35 36 34 35 36 36 37 36 33 30 29 27 26 29 28 31 31 31 35 37 38 37 33 32 30 29 28 27 26 22 22 27 26 28 30 32 34 36 34 31 32 32 32 31 30 29 29 30 30 29 29 29
34 34 34 36 35 37 38 37 34 31 30 28 25 28 28 29 29 32 34 34 37 36 32 32 30 30 28 24 23 26 24 23 25 26 30 30 31 33 34 35 34 32 32 32 31 31 30 30 30 29 27 31 32 33
34 35 35 35 36 36 36 34 31 30 26 27 25 25 30 30 31 32 33 35 32 34 34 32 30 25 23 21 21 24 26 27 29 28 30 31 32 34 34 33 33 32 32 31 31 31 30 29 27 27 30 31 32 33
37 37 36 38 37 33 30 30 31 26 26 27 28 28 32 32 33 34 35 36 34 35 35 31 24 21 22 23 22 23 26 28 29 32 33 33 34 34 33 33 33 32 32 31 30 30 30 29 29 31 29 31 29 32
38 39 40 40 36 33 30 31 35 29 26 27 30 32 32 33 33 34 36 37 35 33 33 28 24 24 23 25 27 28 29 32 31 30 31 32 33 32 31 31 32 32 32 32 32 32 31 31 32 31 31 32 30 29
39 40 40 38 36 35 31 31 29 28 30 28 30 33 31 32 31 31 32 36 32 32 29 29 29 33 34 35 33 32 32 32 30 30 30 30 32 32 32 33 32 32 31 32 31 31 30 28 31 33 32 31 31 31
37 39 36 37 33 34 31 32 28 31 28 29 31 32 29 28 29 31 32 30 31 33 31 33 33 36 35 34 33 33 33 33 33 32 32 31 30 30 30 30 29 29 29 30 30 29 30 31 32 31 30 30 31 32
38 36 34 33 30 29 27 34 28 30 25 28 31 28 29 29 32 33 30 32 33 33 35 34 34 35 35 34 34 34 34 33 32 31 31 31 31 30 30 29 30 29 30 31 31 31 31 32 31 31 32 33 34 32
37 32 29 28 28 25 31 28 30 28 28 28 28 27 29 30 32 30 28 31 33 32 31 32 32 31 31 31 31 32 32 32 32 32 32 31 30 30 30 30 30 31 31 32 32 31 31 30 31 32 32 33 33 33
28 27 27 25 29 27 25 26 26 27 25 28 27 27 29 31 27 27 27 31 32 30 30 30 30 30 29 30 31 31 33 31 30 29 30 31 31 31 30 30 31 31 31 29 29 29 30 32 33 34 34 34 33 34
23 26 25 25 26 24 25 22 23 24 26 26 27 29 30 27 25 25 29 32 32 30 29 29 28 29 29 30 28 29 30 31 31 29 31 29 28 27 27 27 27 32 34 33 32 32 32 33 33 33 33 34 34 34
24 25 29 30 28 28 27 27 27 23 22 23 27 27 24 21 23 29 33 35 34 34 33 32 30 30 30 31 33 33 32 32 32 32 33 33 33 33 30 28 29 33 35 35 35 35 35 34 34 33 33 34 34 34
29 30 25 28 26 26 24 24 24 22 23 26 27 23 19 20 26 31 32 35 35 34 33 33 33 33 32 32 32 33 33 33 33 33 34 32 31 31 31 31 31 31 32 32 32 33 34 33 33 33 33 33 34 34
28 28 26 25 27 27 25 22 24 28 29 28 24 27 28 29 28 29 32 34 35 34 32 31 31 32 31 31 31 31 31 31 31 30 29 29 30 30 29 29 29 30 31 31 32 32 32 32 31 32 33 33 34 34
29 30 27 25 24 24 27 29 29 31 32 32 31 30 28 27 28 31 32 33 33 32 32 31 31 31 30 30 29 30 30 30 29 28 28 28 30 29 29 28 29 29 30 30 30 30 31 32 32 32 32 32 32 32
30 28 26 25 24 26 29 31 30 29 29 29 30 28 26 27 29 29 29 31 31 32 31 30 30 30 30 29 29 28 28 30 30 30 30 30 30 29 28 28 28 28 28 29 30 30 29 29 31 31 31 31 31 31
27 25 24 23 25 29 28 26 26 27 28 28 28 29 28 26 24 26 28 30 30 29 30 29 29 29 30 30 30 31 30 29 29 29 28 28 27 27 26 26 27 27 27 27 28 29 29 29 29 30 30 30 29 29
27 26 26 25 25 25 25 24 24 25 26 25 26 26 27 25 22 25 29 31 31 31 30 29 30 29 28 28 29 30 29 28 27 27 26 25 25 25 26 27 28 28 27 27 27 28 29 30 30 30 30 27 26 25
Wind_Speed
17 17 16 17 16 12 18 19 17 17 16 16 15 15 16 16 17 17 14 17 20 17 26 21 21 22 23 18 27 26 24 23 22 26 10 8 11 21 23 24 33 27 24 21 13 13 26 11 8 21 10 5 14 15
20 14 17 11 18 21 21 17 16 16 17 17 17 16 16 17 16 18 16 14 19 28 15 12 24 36 35 35 27 19 30 19 29 14 20 7 7 11 12 15 8 29 23 21 25 20 5 16 16 10 16 15 13 22
17 15 15 12 12 15 15 15 15 16 17 18 18 17 16 16 17 19 14 13 8 18 18 23 28 41 36 41 35 33 32 36 22 20 15 8 6 12 15 17 9 12 8 15 10 10 16 16 5 13 14 16 19 21
13 20 17 18 20 15 14 15 16 17 17 18 19 19 17 17 17 20 13 14 12 5 9 21 12 17 13 25 37 40 41 20 35 16 15 9 14 13 13 15 26 11 13 13 6 6 11 10 15 21 16 24 23 21
11 12 16 16 15 14 13 14 15 16 17 19 19 18 19 18 18 16 12 15 16 12 7 15 21 39 36 28 32 32 29 30 17 21 13 11 8 7 5 5 14 13 23 23 15 20 14 21 18 21 26 26 29 26
12 12 13 14 14 14 14 14 14 15 16 18 18 17 19 17 16 2 7 13 23 17 7 8 7 12 11 22 21 7 25 21 25 6 6 10 4 5 13 9 6 13 14 19 10 24 17 21 22 16 24 25 22 25
12 12 13 14 14 14 13 13 13 14 15 16 16 17 17 17 10 7 6 3 6 2 4 8 9 5 8 11 11 11 4 5 4 11 7 4 7 6 5 11 3 15 17 18 17 19 11 16 24 20 25 20 23 20
12 12 13 13 14 14 13 12 14 14 14 15 15 15 16 18 14 13 17 26 12 6 5 7 9 6 4 6 3 3 4 4 2 4 3 8 7 5 6 9 4 5 14 17 24 21 21 19 24 22 26 27 27 24
13 12 13 13 13 14 14 13 12 13 12 12 12 12 5 6 6 7 6 8 10 9 5 5 5 7 3 2 3 3 2 2 2 1 4 5 6 9 9 15 9 5 10 20 12 22 27 31 28 28 28 24 27 21
15 14 13 13 14 15 15 13 12 12 11 10 4 4 5 6 4 8 2 4 11 8 6 9 3 12 3 2 3 3 3 2 2 4 2 2 3 5 8 12 19 14 10 19 22 18 22 25 29 26 26 24 27 24
17 17 15 14 15 16 16 14 12 9 5 5 6 5 3 2 2 5 7 8 8 6 7 7 14 10 5 3 4 1 4 3 2 2 4 3 5 14 8 12 19 19 21 16 19 21 24 32 29 26 22 23 26 25
21 19 17 16 16 16 16 14 12 6 4 8 6 1 1 2 5 7 7 5 6 7 6 7 8 8 1 4 4 1 2 1 2 2 2 3 7 17 18 20 22 22 23 22 22 24 23 23 25 26 26 26 23 18
21 20 18 18 19 19 18 16 14 13 10 1 2 3 5 6 8 6 5 5 5 4 7 9 7 6 4 3 4 2 2 2 5 4 3 6 7 7 11 17 19 16 20 21 21 25 26 24 21 25 23 19 21 20
18 20 21 20 19 15 13 16 16 11 9 7 7 6 8 7 9 9 5 6 5 7 7 12 4 3 5 4 3 4 3 5 5 7 9 6 13 14 14 16 22 20 23 24 23 25 26 26 21 19 21 23 23 20
15 17 21 20 18 17 18 18 16 9 5 5 6 7 12 9 5 3 9 11 13 12 12 6 3 4 4 5 2 5 4 7 8 6 5 11 17 13 16 13 18 21 22 22 21 24 26 26 26 22 19 18 20 17
14 13 14 18 21 21 20 15 8 6 4 5 5 6 8 6 7 4 11 19 11 11 5 2 3 3 3 10 5 7 6 6 4 7 7 4 11 13 15 17 17 17 20 22 22 24 27 29 28 24 18 18 16 16
16 6 14 20 20 22 21 8 6 7 4 6 7 8 8 6 9 7 5 7 14 8 6 4 4 4 5 4 6 6 6 2 4 4 4 3 12 13 14 16 19 21 22 22 23 23 22 22 24 22 19 11 12 10
13 9 18 22 21 10 5 5 6 6 7 8 6 6 8 7 6 7 3 3 8 10 7 2 2 6 6 6 4 6 10 6 4 4 8 6 14 17 18 21 21 23 23 23 24 22 23 24 21 16 15 12 11 9
13 18 23 25 22 8 8 7 4 5 11 4 5 8 5 6 6 7 5 8 4 11 10 5 7 6 5 7 11 13 10 7 10 7 8 9 15 21 21 21 23 23 25 25 24 22 20 18 18 16 13 10 9 6
22 22 19 28 28 6 7 5 6 3 5 6 4 8 5 5 3 2 5 6 3 5 6 4 5 5 7 7 8 2 8 13 18 18 13 12 13 22 23 24 21 22 22 20 19 19 17 14 9 11 11 9 7 4
10 9 32 27 6 5 5 7 6 7 6 5 6 7 4 4 6 4 3 2 4 5 5 5 6 5 5 4 7 10 16 13 13 14 19 19 11 21 19 20 23 22 22 20 20 15 14 14 12 9 7 4 4 4
5 14 6 2 2 3 2 4 3 7 6 3 5 3 2 2 3 2 4 5 5 6 5 3 3 1 6 7 10 13 17 20 19 17 20 20 21 23 23 22 23 21 21 19 18 17 11 8 9 7 6 4 2 1
10 5 4 2 2 1 2 5 2 4 5 6 4 2 3 2 2 3 5 5 5 5 4 3 4 9 13 14 20 17 17 25 20 19 18 18 16 19 21 17 21 21 17 10 9 11 9 8 8 8 5 3 2 1
7 4 5 6 3 4 2 5 3 4 3 4 4 3 4 5 1 2 4 4 4 7 5 16 19 17 14 15 16 16 14 23 21 17 13 22 20 15 17 17 15 12 10 11 9 9 8 7 5 4 4 4 4 4
6 4 6 5 5 6 5 6 4 4 5 3 3 1 1 3 2 3 3 3 4 1 7 17 16 14 20 17 14 15 13 18 23 20 9 18 20 17 17 15 13 9 6 11 7 5 3 3 3 4 5 5 6 7
4 7 12 12 8 6 8 8 8 7 5 4 2 3 4 4 5 4 2 3 1 3 9 19 21 19 18 16 19 19 13 11 20 19 8 8 15 18 16 14 10 5 6 4 5 4 4 4 5 6 5 5 7 8
6 6 6 4 6 9 3 0 5 6 5 6 7 5 2 2 2 2 1 3 5 7 10 8 14 20 19 16 12 10 10 12 16 16 11 13 14 11 9 9 7 5 5 7 7 6 6 6 6 7 8 10 9 8
3 6 14 12 5 4 5 4 4 4 5 4 7 6 10 4 1 3 1 2 5 10 15 16 16 16 17 14 12 15 16 17 18 17 19 19 17 15 14 12 10 7 4 3 2 2 4 7 10 11 12 10 7 6
1 3 10 11 5 4 3 4 4 3 6 9 6 4 2 3 7 5 3 8 12 10 12 14 12 13 18 17 17 15 11 11 15 12 10 8 4 6 7 8 7 5 4 2 1 2 4 5 7 7 6 6 4 3
3 4 5 3 3 3 2 1 3 2 4 5 5 5 5 5 9 7 11 14 11 8 9 11 11 11 13 15 14 14 14 11 7 5 11 9 7 8 7 5 5 4 3 3 3 3 2 2 3 2 2 3 4 5
4 3 4 3 3 1 4 7 10 10 6 6 8 7 6 5 5 15 16 10 9 10 15 15 14 11 14 13 13 12 10 7 10 13 13 12 10 8 7 4 3 2 1 1 3 3 4 4 4 1 0 3 5 6
3 2 5 5 4 2 2 3 4 4 3 4 3 2 3 4 5 6 9 7 8 11 11 13 15 13 12 12 11 9 10 11 9 9 9 9 8 6 4 2 0 1 2 2 2 2 1 1 1 1 1 4 7 9
3 5 5 4 3 2 4 5 4 6 6 3 4 4 4 3 4 2 2 6 6 9 10 11 10 11 12 11 10 10 12 12 11 11 11 8 6 5 4 3 2 2 2 2 1 0 1 1 1 3 6 10 13 15
Wind_Direction
243 217 215 206 189 202 220 218 208 212 219 225 230 233 233 235 233 218 238 209 228 253 255 240 246 245 254 243 256 268 249 225 225 228 209 198 202 208 218 227 197 192 193 207 198 230 244 190 137 201 194 157 169 173
221 238 223 217 207 203 215 212 211 215 223 232 237 238 237 241 239 229 251 232 232 242 253 252 253 249 247 248 252 246 264 235 214 219 206 223 190 164 197 202 219 203 192 183 191 210 193 176 203 200 170 166 172 164
213 225 218 219 240 210 210 214 216 220 227 236 243 245 244 246 248 233 250 268 242 243 258 254 252 257 245 242 230 246 262 240 246 222 203 211 215 162 193 214 153 222 160 185 158 204 179 187 184 179 180 157 152 148
235 211 206 216 219 214 214 221 226 229 234 239 245 249 251 252 259 238 247 260 236 240 255 269 252 245 250 233 228 238 239 257 225 224 194 208 218 184 192 196 209 205 161 158 179 182 150 180 184 171 154 140 138 142
260 232 216 214 215 217 221 226 230 234 239 244 245 247 257 260 264 251 252 258 232 242 279 279 295 281 264 235 245 253 220 226 233 204 202 193 215 151 154 217 194 185 181 187 207 179 169 183 180 159 149 149 148 148
270 250 230 218 217 219 226 231 237 242 243 242 246 253 257 258 264 322 280 225 223 220 264 279 274 270 285 248 231 251 202 220 232 305 184 164 180 185 181 213 227 189 186 175 173 174 170 168 164 156 149 150 144 141
270 247 235 223 220 223 230 238 246 251 245 245 253 258 254 257 227 213 248 324 61 230 271 277 271 287 254 237 216 250 246 96 333 217 218 158 155 135 144 203 206 201 188 174 155 139 139 158 168 165 143 138 130 130
261 245 235 229 228 229 232 243 249 247 247 254 259 249 250 262 237 254 248 257 270 252 244 265 267 301 242 170 206 166 129 113 233 288 202 165 149 131 206 218 311 223 169 162 160 169 162 140 131 133 132 131 131 134
258 248 244 237 231 229 230 237 242 246 256 263 252 256 267 222 239 248 271 283 192 195 236 259 259 274 209 94 132 86 124 147 300 201 279 139 141 206 177 201 214 221 174 168 138 137 135 142 142 141 138 138 137 140
254 248 248 239 233 230 228 234 243 247 252 258 210 175 230 214 306 326 271 238 202 210 227 247 237 278 273 67 72 86 64 92 174 231 318 45 233 231 197 195 200 185 99 133 122 128 137 145 145 149 154 150 149 150
247 245 246 241 236 225 223 228 241 255 273 181 193 224 251 356 239 228 234 211 199 229 217 234 210 233 252 130 131 124 128 146 182 213 152 190 256 210 188 196 182 166 143 154 158 165 170 154 155 156 152 146 148 152
243 240 238 240 224 211 215 226 230 195 211 197 177 173 323 207 236 249 212 215 221 231 204 216 202 201 221 74 99 38 105 165 186 92 48 270 246 190 177 186 179 185 186 184 188 170 161 149 148 149 150 152 155 147
240 238 238 236 226 216 216 219 218 209 244 221 179 222 195 202 240 243 224 211 234 223 223 184 184 179 93 80 83 109 121 174 147 131 225 246 294 251 193 168 180 168 159 158 149 145 150 150 149 148 143 138 131 128
241 241 236 234 221 213 222 228 217 203 221 189 186 217 217 213 228 214 244 274 285 255 268 175 207 171 142 117 143 114 153 176 194 196 205 221 205 204 216 188 162 162 157 157 154 148 149 147 140 134 135 140 135 130
249 245 220 222 201 209 219 233 208 192 236 187 191 224 218 240 275 293 285 285 274 281 260 143 185 125 103 118 156 132 183 214 213 216 218 193 207 183 184 160 148 146 144 140 137 136 135 133 133 131 134 131 124 126
248 245 223 206 201 208 212 213 194 187 217 207 230 243 243 268 280 269 285 283 269 265 95 190 141 145 170 137 149 203 187 223 215 201 225 167 169 169 170 156 155 143 137 135 136 138 139 140 140 137 132 133 136 135
240 220 198 202 192 192 199 186 168 213 231 204 229 234 254 267 267 270 283 301 336 288 189 202 132 176 129 165 200 200 213 216 234 217 220 126 140 154 154 143 145 142 141 139 136 139 137 131 131 131 130 144 134 126
233 192 197 195 186 177 190 204 192 208 219 226 231 231 212 224 237 253 202 344 343 320 162 244 180 193 185 178 221 222 220 213 209 194 162 160 141 144 144 140 139 139 137 134 135 133 135 137 136 133 131 133 123 123
219 225 230 219 175 138 167 187 217 218 226 190 243 263 245 252 227 242 264 191 217 274 283 207 231 187 189 213 203 204 200 172 142 132 114 130 131 128 124 123 124 126 127 129 133 139 144 143 137 135 139 144 128 138
226 236 227 157 154 152 166 166 159 260 237 201 193 255 236 233 251 253 290 229 250 266 227 219 227 221 201 232 213 172 144 144 123 113 106 96 107 115 119 118 115 116 116 117 122 124 119 113 119 133 146 148 143 186
199 185 148 147 153 206 202 154 180 210 167 184 199 218 267 326 322 324 306 337 263 246 245 215 232 248 254 263 170 145 144 147 137 144 140 128 109 111 110 112 118 120 125 130 129 130 137 148 154 146 132 161 218 241
124 102 120 128 143 217 170 179 228 176 153 189 153 206 237 243 264 306 304 225 258 258 247 258 260 213 114 143 134 127 119 106 102 103 108 114 119 118 122 125 121 128 134 142 146 154 154 137 136 153 182 186 162 259
94 92 82 126 125 110 217 122 203 168 153 183 155 224 224 259 242 210 246 251 245 252 251 189 98 89 108 107 103 103 117 120 117 123 122 122 122 129 128 127 131 129 128 137 150 150 143 148 164 171 162 136 153 258
116 106 136 167 139 184 180 189 175 139 129 178 200 201 195 209 196 299 262 262 276 315 156 123 110 107 85 84 90 90 91 108 107 98 108 122 119 105 109 110 103 101 121 139 147 151 153 153 138 128 144 177 205 224
125 159 142 157 195 172 195 171 157 161 167 112 163 226 263 43 313 275 267 269 318 148 133 109 100 102 110 100 86 82 62 109 115 109 90 109 111 104 96 97 100 101 129 137 147 137 122 128 145 178 201 212 225 235
129 171 181 175 168 168 192 178 186 168 137 134 197 173 181 188 236 248 282 105 235 252 122 119 125 110 94 99 107 102 109 113 110 107 104 103 117 123 125 124 125 96 45 88 121 139 172 190 203 213 224 238 249 245
142 168 195 209 147 132 157 185 130 127 145 164 175 192 192 247 263 255 87 31 29 40 60 67 109 112 113 106 93 85 76 76 94 106 97 75 67 68 103 132 152 135 104 101 114 138 170 188 199 215 230 241 239 237
126 155 159 161 132 132 148 161 161 177 174 167 141 161 168 217 174 17 83 36 84 59 56 53 63 90 98 96 102 103 90 96 97 95 82 60 53 56 64 72 79 88 84 61 24 314 261 252 244 244 244 243 247 245
92 164 134 139 116 110 150 161 183 201 148 161 145 132 97 40 6 355 58 115 113 122 118 106 86 91 83 72 69 77 86 105 126 135 133 133 116 59 61 77 83 81 71 60 269 246 251 245 250 251 249 237 230 244
79 59 101 74 93 122 153 179 152 102 46 77 93 78 60 35 357 4 78 94 118 138 124 113 116 112 118 115 105 75 53 56 60 147 173 171 165 143 121 108 99 87 99 131 140 79 54 47 22 15 240 190 152 138
88 86 86 86 105 81 104 93 82 71 59 59 68 111 127 151 59 34 42 52 83 104 106 105 100 98 107 108 113 114 100 52 71 79 91 106 116 111 102 86 71 70 66 53 59 61 52 54 52 53 175 107 106 114
61 94 123 115 123 115 126 110 91 88 72 78 60 70 96 74 70 42 7 25 85 94 92 97 101 97 90 90 90 91 112 122 110 109 110 105 96 90 95 103 325 357 9 349 350 23 87 108 69 115 130 116 119 119
58 64 84 92 75 65 39 100 86 96 73 61 44 56 61 80 110 128 19 29 79 100 105 112 110 108 109 112 117 114 111 112 112 102 88 85 84 74 64 44 27 37 34 25 10 6 198 179 204 162 137 126 120 116